Regional Weather Roundup
Issued by NWS Jackson, KY

Home | Current Version | Previous Version | Text Only | Print | Product List | Glossary Off
Versions: 1 2 3 4 5 6 7 8 9 10 11 12 13 14 15 16 17 18 19 20 21 22 23 24 25 26 27 28 29 30 31 32 33 34 35 36 37 38 39 40 41 42 43 44 45 46 47 48 49 50

895
ASUS43 KJKL 041010
RWRJKL

EAST KENTUCKY HOURLY WEATHER ROUNDUP
NATIONAL WEATHER SERVICE JACKSON KY
600 AM EDT WED MAY 04 2016

NOTE: "FAIR" INDICATES FEW OR NO CLOUDS BELOW 12,000 FEET WITH
NO SIGNIFICANT WEATHER AND/OR OBSTRUCTIONS TO VISIBILITY.

* THESE REPORTS ARE NOT UNDER NWS QUALITY CONTROL AND MAY NOT
  REPORT WEATHER SUCH AS PRECIPITATION AND FOG.

KYZ079-080-083-085-087-088-110-112-115-119-120-041100
...EASTERN KENTUCKY...

CITY           SKY/WX    TMP DP  RH WIND       PRES   REMARKS
JACKSON        CLOUDY    51  48  89 VRB3      29.79S
LONDON         LGT RAIN  51  45  79 W7        29.81F
SOMERSET*      PTCLDY    48  45  87 CALM      29.84S
MONTICELLO*    CLOUDY    49  45  86 W12       29.85S
WILLIAMSBURG*  CLOUDY    50  50 100 CALM      29.83S
MIDDLESBORO*   CLOUDY    53  45  75 CALM      29.82S
HARLAN APT*    CLOUDY    50  46  87 CALM      29.81S
HAZARD APT*    CLOUDY    52  48  87 W6        29.80S
BLACK MTN*       N/A     43  43 100 S5          N/A
PIKE CO APT*   CLOUDY    50  48  91 W5        29.78S
BIG SANDY APT* CLOUDY    51  49  95 CALM      29.78S
MOREHEAD APT*  CLOUDY    52  48  87 SW5       29.80S
$$

KYZ035-036-041-042-044-050-067-078-099-041100
...CENTRAL KENTUCKY...

CITY           SKY/WX    TMP DP  RH WIND       PRES   REMARKS
MT STERLING*   CLOUDY    48  46  93 SW3       29.80S
FLEMING/MASON* CLEAR     46  46 100 SW5       29.78S FOG
DANVILLE*      CLEAR     46  43  87 CALM      29.82S
RICHMOND*      PTCLDY    50  45  81 SW6       29.79F
LEXINGTON      CLEAR     47  43  86 SW7       29.78F
FRANKFORT      CLOUDY    48  44  86 SW6       29.77F
LOUISVILLE     CLOUDY    54  43  66 SW6       29.77F
LEBANON*         N/A     48  45  87 S6        29.81S
BOWLING GREEN  CLEAR     49  44  83 SW6       29.84F
$$

KYZ091>093-OHZ055-061-077-WVZ005-015-034-035-042-041100
...SOUTHERN OHIO/WEST VIRGINIA...

CITY           SKY/WX    TMP DP  RH WIND       PRES   REMARKS
COVINGTON      CLOUDY    48  46  93 SW5       29.74F
COLUMBUS       CLEAR     45  44  97 S3        29.72F FOG
DAYTON         CLOUDY    48  45  89 SW9       29.71F
WILMINGTON     PTCLDY    45  45 100 S5        29.73F
HUNTINGTON     CLOUDY    52  50  93 SW3       29.76F
CHARLESTON     CLOUDY    53  50  89 W7        29.75F
PINEVILLE*     CLOUDY    50  47  92 MISG      29.81F FOG
BECKLEY        CLOUDY    48  46  93 SW3       29.76F
$$

VAZ002-007-008-TNZ017-027-036-066-071-041100
...SOUTHWEST VIRGINIA/EAST TENNESSEE...

CITY           SKY/WX    TMP DP  RH WIND       PRES   REMARKS
WISE*          CLOUDY    48  45  87 CALM      29.80F
BRISTOL        CLOUDY    54  45  71 W7        29.79S
MORRISTOWN*    MOSUNNY   54  46  76 NW6       29.81S
SEVIERVILLE*   CLOUDY    54  46  76 CALM      29.82S
KNOXVILLE      PTCLDY    53  45  74 W6        29.82S
OAK RIDGE      CLEAR     51  46  83 CALM      29.85S
CROSSVILLE     CLEAR     44  42  93 CALM      29.85F
NASHVILLE      PTCLDY    48  44  86 CALM      29.86F
$$

...KEY TO REMARKS...
VSB - VISIBILITY IN MILES
WCI - WIND CHILL INDEX
HX  - HEAT INDEX

$$




USA.gov is the U.S. government's official web portal to all federal, state and local government web resources and services.